Location: Conflandey
(47.7287°N, 6.0456°E)
Time: 22:04:43
(UTC+00:00)

Cosmos 1892 - Pass Details

Date: 24 October 2021
Orbit: 501 x 522 km, 82.5° (Epoch: 05 December)

Event Time Altitude Azimuth Distance (km) Brightness Sun altitude
Rises 18:45:05 0° 344° (NNW) 2,618 6.6 -23.1°
Reaches altitude 10° 18:47:17 10° 338° (NNW) 1,725 5.7 -23.5°
Maximum altitude 18:50:53 44° 266° (W) 709 3.7 -24.1°
Enters shadow 18:53:11 19° 202° (SSW) 1,227 4.7 -24.5°
